User: anonymous   Login
Location: Trois-Rivi�res
(46.3500°N, 72.5500°W)
Time: 11:13:00
(UTC-04:00)
Language:

Cosmos 1975 - Orbit

View from above orbital plane
View from above orbital plane
View from above satellite
View from above satellite

Ground track
Ground track

The orbit data is extracted from the following two-line orbital elements,

1 19573U 88093A   16182.84682213  .00000079  00000-0  36537-5 0  9990
2 19573  82.5207 325.2854 0015923  58.9182 301.3605 15.03743558507004
Epoch (UTC): 30 June 2016 20:19:25
Eccentricity: 0.0015923
inclination: 82.5207°
perigee height: 544 km
apogee height: 566 km
right ascension of ascending node: 325.2854°
argument of perigee: 58.9182°
revolutions per day: 15.03743558
mean anomaly at epoch: 301.3605°
orbit number at epoch: 50700

The dashed part of the orbit path shows where the satellite is in the earth's shadow,  

DLR